Location: Overspoor
(51.4747°N, 5.6641°E)
Time: 06:45:49
(UTC+02:00)

BEESAT - Visible Passes

Search period start: 26 June 2022 00:00
Search period end: 06 July 2022 00:00
Orbit: 698 x 708 km, 98.6° (Epoch: 25 June)

Date Brightness Start Highest point End Pass type
(mag) Time Alt. Az. Time Alt. Az. Time Alt. Az.
26 Jun ? 23:33:55 10° N 23:37:43 24° WNW 23:41:29 10° WSW visible
27 Jun ? 22:38:34 10° N 22:43:17 63° WNW 22:48:00 10° SSW visible
28 Jun ? 00:18:15 10° NNW 00:20:07 12° NW 00:21:58 10° WNW visible
28 Jun ? 23:21:56 10° N 23:26:01 29° WNW 23:30:06 10° WSW visible
30 Jun ? 00:05:52 10° NNW 00:08:30 15° NW 00:11:07 10° W visible
30 Jun ? 23:09:57 10° N 23:14:18 36° WNW 23:18:38 10° SW visible
01 Jul ? 23:53:40 10° NNW 23:56:51 18° NW 00:00:02 10° W visible
02 Jul ? 22:58:02 10° N 23:02:34 44° WNW 23:07:05 10° SW visible
03 Jul ? 23:41:35 10° N 23:45:11 22° WNW 23:48:47 10° WSW visible
04 Jul ? 22:46:08 10° N 22:50:49 56° WNW 22:55:29 10° SW visible
05 Jul ? 00:26:16 10° NNW 00:27:34 11° NW 00:28:52 10° WNW visible
05 Jul ? 23:29:33 10° N 23:33:30 26° WNW 23:37:27 10° WSW visible
